DW3835 Weather Reports


Display with metric or nautical units.
time (UTC)temp
F
wind
direction
speed
MPH
gust
MPH
rain 1hr
in
rain 24hr
in
rain mn
in
humidity
%
barometer
mb
20260906215052 74 153 1.0 4.0 0.00 0.00 0.00 55 1013.1
20260906214112 74 126 1.0 6.0 0.00 0.00 0.00 55 1013.2
20260906213056 75 196 1.0 6.0 0.00 0.00 0.00 56 1013.0
20260906212039 75 200 1.0 5.0 0.00 0.00 0.00 57 1013.1
20260906211055 74 188 1.0 5.0 0.00 0.00 0.00 59 1013.2
20260906210113 74 130 1.0 6.0 0.00 0.00 0.00 59 1013.3
20260906205119 74 140 1.0 6.0 0.00 0.00 0.00 58 1013.3
20260906204109 75 74 1.0 7.0 0.00 0.00 0.00 57 1013.2
20260906203034 74 130 2.0 7.0 0.00 0.00 0.00 57 1013.2
20260906202025 74 149 1.0 4.0 0.00 0.00 0.00 57 1013.3
20260906200953 74 166 2.0 8.0 0.00 0.00 0.00 56 1013.2
20260906195947 73 198 2.0 8.0 0.00 0.00 0.00 60 1013.2
20260906194932 74 198 1.0 6.0 0.00 0.00 0.00 59 1013.3
20260906193952 73 171 1.0 6.0 0.00 0.00 0.00 59 1013.4
20260906192924 74 169 1.0 6.0 0.00 0.00 0.00 58 1013.4
20260906191939 72 177 2.0 6.0 0.00 0.00 0.00 61 1013.5
20260906190934 72 178 2.0 6.0 0.00 0.00 0.00 61 1013.5
20260906183706 70 113 1.0 5.0 0.00 0.00 0.00 67 1013.7
20260906182725 70 165 1.0 5.0 0.00 0.00 0.00 66 1013.7
20260906181733 69 165 1.0 7.0 0.00 0.00 0.00 70 1013.7
20260906180739 68 211 1.0 7.0 0.00 0.00 0.00 69 1013.8
20260906175729 68 166 2.0 4.0 0.00 0.00 0.00 70 1013.8
20260906174732 67 168 1.0 4.0 0.00 0.00 0.00 71 1013.8
20260906173701 66 111 1.0 5.0 0.00 0.00 0.00 72 1013.8
20260906172723 66 130 1.0 5.0 0.00 0.00 0.00 72 1013.7
20260906171715 65 181 1.0 6.0 0.00 0.00 0.00 74 1013.7
20260906170739 65 169 1.0 6.0 0.00 0.00 0.00 74 1013.6
20260906164619 63 140 1.0 5.0 0.00 0.00 0.00 79 1013.7
20260906163628 62 190 2.0 5.0 0.00 0.00 0.00 79 1013.7
20260906162613 62 138 1.0 5.0 0.00 0.00 0.00 81 1013.7
20260906161541 60 144 2.0 5.0 0.00 0.00 0.00 82 1013.8
20260906160511 60 171 1.0 5.0 0.00 0.00 0.00 83 1013.7
20260906155446 60 187 1.0 3.0 0.00 0.00 0.00 83 1013.8
20260906154503 59 169 1.0 3.0 0.00 0.00 0.00 84 1013.9
20260906153452 59 217 0.0 3.0 0.00 0.00 0.00 84 1013.8
20260906152425 59 192 1.0 8.0 0.00 0.00 0.00 85 1013.8
20260906145209 58 226 0.0 3.0 0.00 0.00 0.00 87 1013.9
20260906143011 57 154 0.0 8.0 0.00 0.00 0.00 87 1013.6
20260906141951 57 186 1.0 8.0 0.00 0.00 0.00 87 1013.4
20260906141001 57 173 0.0 5.0 0.00 0.00 0.00 88 1013.3
20260906135945 57 138 0.0 1.0 0.00 0.00 0.00 87 1013.3
20260906135007 57 213 0.0 3.0 0.00 0.00 0.00 87 1013.1
20260906134019 57 167 0.0 4.0 0.00 0.00 0.00 87 1013.1
20260906133035 57 180 0.0 4.0 0.00 0.00 0.00 87 1013.0
20260906132020 57 162 0.0 2.0 0.00 0.00 0.00 87 1013.0
20260906124648 57 256 0.0 2.0 0.00 0.00 0.00 87 1012.9
20260906123644 57 175 0.0 0.0 0.00 0.00 0.00 87 1012.7
20260906122634 57 174 0.0 0.0 0.00 0.00 0.00 87 1012.7
20260906121616 57 162 0.0 0.0 0.00 0.00 0.00 88 1012.7
20260906120606 57 142 0.0 0.0 0.00 0.00 0.00 87 1012.8
20260906112154 58 194 0.0 0.0 0.00 0.00 0.00 87 1012.7
20260906111132 58 200 0.0 0.0 0.00 0.00 0.00 88 1012.7
20260906110136 57 87 0.0 0.0 0.00 0.00 0.00 88 1012.7
20260906105125 57 196 0.0 0.0 0.00 0.00 0.00 88 1012.7
20260906104114 57 125 0.0 0.0 0.00 0.00 0.00 88 1012.8
20260906103057 57 122 0.0 0.0 0.00 0.00 0.00 88 1012.7
20260906102045 57 96 0.0 0.0 0.00 0.00 0.00 88 1012.7
20260906101108 57 166 0.0 2.0 0.00 0.00 0.00 88 1012.7
20260906100056 58 171 0.0 3.0 0.00 0.00 0.00 88 1012.6
20260906095118 58 176 0.0 4.0 0.00 0.00 0.00 88 1012.5
20260906094131 58 158 0.0 4.0 0.00 0.00 0.00 88 1012.6
20260906090924 58 163 0.0 3.0 0.00 0.00 0.00 88 1012.8
20260906085919 58 192 0.0 2.0 0.00 0.00 0.00 87 1012.8
20260906084844 58 176 0.0 2.0 0.00 0.00 0.00 87 1012.8
20260906082807 58 120 0.0 0.0 0.00 0.00 0.00 86 1012.8
20260906081829 58 202 0.0 0.0 0.00 0.00 0.00 86 1012.8
20260906080802 58 193 0.0 1.0 0.00 0.00 0.00 86 1012.8
20260906075738 58 170 0.0 0.0 0.00 0.00 0.00 86 1012.9
20260906074801 58 171 0.0 0.0 0.00 0.00 0.00 85 1012.9
20260906073817 58 67 0.0 0.0 0.00 0.00 0.00 84 1012.8
20260906072814 58 67 0.0 0.0 0.00 0.00 0.00 84 1012.9
20260906071745 59 67 0.0 0.0 0.00 0.00 0.00 83 1012.8
20260906070806 59 67 0.0 0.0 0.00 0.00 0.00 83 1012.8
20260906065731 59 67 0.0 0.0 0.00 0.00 0.00 82 1012.9
20260906064732 59 67 0.0 0.0 0.00 0.00 0.00 82 1013.0
20260906063714 60 67 0.0 0.0 0.00 0.00 0.00 81 1013.0
20260906062715 60 67 0.0 0.0 0.00 0.00 0.00 81 1013.1
20260906061712 60 67 0.0 0.0 0.00 0.00 0.00 81 1013.1
20260906060736 60 67 0.0 0.0 0.00 0.00 0.00 80 1013.3
20260906055708 61 300 0.0 0.0 0.00 0.00 0.00 78 1013.3
20260906054717 60 298 0.0 0.0 0.00 0.00 0.00 78 1013.3
20260906053703 60 302 0.0 0.0 0.00 0.00 0.00 78 1013.4
20260906052654 61 169 0.0 0.0 0.00 0.00 0.00 77 1013.4
20260906051709 61 165 0.0 0.0 0.00 0.00 0.00 77 1013.5
20260906050648 61 153 0.0 0.0 0.00 0.00 0.00 76 1013.6
20260906045649 62 155 0.0 0.0 0.00 0.00 0.00 74 1013.6
20260906044640 62 155 0.0 0.0 0.00 0.00 0.00 74 1013.5
20260906043648 62 155 0.0 0.0 0.00 0.00 0.00 73 1013.4
20260906041519 63 83 0.0 0.0 0.00 0.00 0.00 71 1013.3
20260906040515 63 68 0.0 0.0 0.00 0.00 0.00 70 1013.2
20260906035518 63 68 0.0 0.0 0.00 0.00 0.00 69 1013.0
20260906034503 64 68 0.0 0.0 0.00 0.00 0.00 67 1012.9
20260906033445 64 68 0.0 0.0 0.00 0.00 0.00 66 1012.8
20260906032444 65 67 0.0 0.0 0.00 0.00 0.00 66 1012.6
20260906031433 64 67 0.0 0.0 0.00 0.00 0.00 65 1012.4
20260906030415 65 67 0.0 0.0 0.00 0.00 0.00 63 1012.4
20260906025353 65 98 0.0 0.0 0.00 0.00 0.00 63 1012.3
20260906022006 67 159 0.0 1.0 0.00 0.00 0.00 59 1012.4
20260906021011 67 140 0.0 1.0 0.00 0.00 0.00 58 1012.4
20260906020006 68 153 0.0 0.0 0.00 0.00 0.00 56 1012.3
20260906013825 69 131 0.0 0.0 0.00 0.00 0.00 54 1012.4
20260906012805 69 157 0.0 4.0 0.00 0.00 0.00 54 1012.4
20260906011738 69 154 0.0 4.0 0.00 0.00 0.00 52 1012.4
20260906010728 70 291 0.0 4.0 0.00 0.00 0.00 54 1012.4
20260906005733 70 5 0.0 4.0 0.00 0.00 0.00 53 1012.5
20260906004732 70 136 1.0 4.0 0.00 0.00 0.00 53 1012.5
20260906003704 70 74 0.0 4.0 0.00 0.00 0.00 52 1012.6
20260906002703 70 184 0.0 4.0 0.00 0.00 0.00 53 1012.6
20260906001647 71 161 1.0 3.0 0.00 0.00 0.00 52 1012.6
20260906000616 72 159 0.0 4.0 0.00 0.00 0.00 53 1012.5
20260905234440 72 171 0.0 4.0 0.00 0.00 0.00 53 1012.5
20260905232306 73 94 1.0 4.0 0.00 0.00 0.00 50 1012.6
20260905231328 73 156 2.0 6.0 0.00 0.00 0.00 49 1012.7
20260905230340 73 165 2.0 9.0 0.00 0.00 0.00 48 1012.7
20260905225345 73 178 2.0 9.0 0.00 0.00 0.00 47 1012.7
20260905224338 74 125 1.0 7.0 0.00 0.00 0.00 48 1012.9
20260905223319 74 136 1.0 6.0 0.00 0.00 0.00 50 1013.0